Regional Weather Roundup
Issued by NWS

Home | Current Version | Previous Version | Graphics & Text | Print | Product List | Glossary Off
Versions: 1 2 3 4 5 6 7 8 9 10 11 12 13 14 15 16 17 18 19 20 21 22 23 24 25 26 27 28 29 30 31 32 33 34 35 36 37 38 39 40 41 42 43 44 45 46 47 48 49 50

000
ASUS43 KMKX 300710
RWRWI

WISCONSIN REGIONAL WEATHER ROUNDUP
NATIONAL WEATHER SERVICE MILWAUKEE/SULLIVAN WI
200 AM CDT MON MAR 30 2015

NOTE: "FAIR" INDICATES FEW OR NO CLOUDS BELOW 12,000 FEET WITH NO
SIGNIFICANT WEATHER AND/OR OBSTRUCTIONS TO VISIBILITY.

WIZ001-002-006>008-014>016-023>028-300800-
NORTHWEST WISCONSIN

CITY           SKY/WX    TMP DP  RH WIND       PRES   REMARKS
SUPERIOR ARPT  CLEAR     34  26  71 SW9       29.86R WCI  27
ASHLAND        CLEAR     36  25  64 SW8       29.83S WCI  30
HAYWARD        CLEAR     30  25  81 SW3       29.86S
SIREN          CLEAR     35  25  67 W7        29.90S WCI  29
CUMBERLAND     CLEAR     32  27  80 W8        29.89F WCI  25
RICE LAKE      CLEAR     35  27  70 W7        29.91S WCI  30
CHETEK         CLEAR     37  27  65 W5        29.90S WCI  34
LADYSMITH      CLEAR     34  26  74 W7        29.89S WCI  28
EAU CLAIRE     CLEAR     35  25  66 SW8       29.92S WCI  29
MENOMONIE      CLEAR     37  26  63 W6        29.93S WCI  32
NEW RICHMOND   PTCLDY    34  26  70 W6        29.94S WCI  29
OSCEOLA        MOCLDY    35  27  74 W8        29.96S WCI  28
$$

WIZ003>005-009-010-017-018-300800-
NORTH CENTRAL WISCONSIN

CITY           SKY/WX    TMP DP  RH WIND       PRES   REMARKS
MANITOWISH WTR PTCLDY    32  27  81 W7        29.79S WCI  25
ARBOR VITAE    CLEAR     34  28  79 W8        29.80S WCI  27
WOODRUFF       CLEAR     34  28  79 W8        29.80S WCI  27
RHINELANDER    CLEAR     31  26  82 W10       29.81S WCI  22
EAGLE RIVER    CLEAR     32  25  76 W7        29.77F WCI  26
LAND O LAKES   CLEAR     32  28  83 W6        29.77S WCI  26
PHILLIPS       PTCLDY    31  26  80 W6        29.83F WCI  26
TOMAHAWK       CLEAR     33  26  77 W5        29.84S WCI  28
MEDFORD        CLEAR     34  27  74 W8        29.87R WCI  27
MERRILL        CLEAR     32  28  83 W9        29.84S WCI  25
$$

WIZ029-030-035-036-043>047-300800-
CENTRAL WISCONSIN

CITY           SKY/WX    TMP DP  RH WIND       PRES   REMARKS
WAUSAU         CLEAR     34  27  75 W9        29.84S WCI  27
MOSINEE        CLEAR     32  30  93 W7        29.87S WCI  26
MARSHFIELD     CLEAR     35  26  69 W8        29.89R WCI  29
STEVENS POINT  CLEAR     34  27  75 W6        29.89R WCI  29
WAUPACA        CLEAR     38  29  72 W7        29.89R WCI  32
WAUTOMA        CLEAR     35  29  79 W6        29.92R WCI  30
WISC RAPIDS    CLEAR     32  25  75 W7        29.92R WCI  26
CAMP DOUGLAS   CLEAR     33  30  89 W12       29.93R WCI  25
$$

WIZ011>013-019>022-031-037>040-048>050-300800-
NORTHEAST WISCONSIN

CITY           SKY/WX    TMP DP  RH WIND       PRES   REMARKS
ANTIGO         CLEAR     33  27  79 W9        29.83R WCI  25
SHAWANO        CLEAR     39  29  69 W8        29.85R WCI  33
OCONTO         CLEAR     34  30  85 W8        29.81R WCI  27
STURGEON BAY   CLEAR     36  28  75 W10       29.81R WCI  28
GREEN BAY      CLEAR     37  29  72 W12       29.84R WCI  29
MANITOWOC      CLEAR     38  30  73 W9        29.85R WCI  31
APPLETON       CLEAR     32  28  86 W8        29.87R WCI  25
CLINTONVILLE   CLEAR     36  30  80 W7        29.86R WCI  30
OSHKOSH        MOCLDY    37  29  72 W6        29.88R WCI  32
$$

WIZ032>034-041-042-053>061-300800-
SOUTHWEST WISCONSIN

CITY           SKY/WX    TMP DP  RH WIND       PRES   REMARKS
LA CROSSE      CLEAR     35  27  72 CALM      29.96S
SPARTA         CLEAR     37  27  68 SW5       29.96S WCI  33
VIROQUA        CLEAR     36  28  75 W8        29.96R WCI  29
BOSCOBEL       CLEAR     37  27  67 S7        29.99R WCI  32
PRAIRIE DU CHI CLEAR     39  28  63 NW7       30.01R WCI  34
PLATTEVILLE    CLEAR     36  29  76 W8        29.99R WCI  29
$$

WIZ056-057-062-063-064-067-068-300800-
SOUTH CENTRAL WISCONSIN

CITY           SKY/WX    TMP DP  RH WIND       PRES   REMARKS
REEDSBURG      CLEAR     33  29  86 W3        29.94S
BARABOO/DELLS  CLEAR     37  28  71 W7        29.94R WCI  31
LONE ROCK      CLEAR     38  28  67 W6        29.97R WCI  33
MINERAL POINT  CLEAR     37  28  70 W12       29.97R WCI  30
MADISON        CLEAR     37  28  70 W6        29.94R WCI  32
MIDDLETON      CLEAR     37  28  71 W7        29.95R WCI  31
WATERTOWN      CLOUDY    35  34  96 W3        29.92R
MONROE         CLEAR     37  30  75 W13       29.96R WCI  29
JANESVILLE     CLEAR     37  30  75 W9        29.95R WCI  31
$$

WIZ051-052-058>065-066-070>072-300800-
SOUTHEAST WISCONSIN

CITY           SKY/WX    TMP DP  RH WIND       PRES   REMARKS
MILWAUKEE      MOCLDY    40  31  70 SW5       29.92R
WAUKESHA       CLOUDY    36  32  87 W10       29.93R WCI  28
MILWAUKEE/TIMM CLOUDY    37  32  81 W7        29.92R WCI  32
RACINE         CLOUDY    37  32  82 W6        29.94R WCI  32
BURLINGTON     MOCLDY    33  30  90 W5        29.94R WCI  28
KENOSHA        CLOUDY    38  33  82 W12       29.93R WCI  30
FOND DU LAC    CLOUDY    39  29  67 W9        29.89R WCI  33
SHEBOYGAN      CLEAR     38  29  70 W9        29.87R WCI  31
WEST BEND      CLOUDY    37  30  75 W10       29.89R WCI  30
JUNEAU         CLOUDY    35  32  89 W6        29.92R WCI  30
$$

LSZ147-162-300800-
LAKE SUPERIOR

STATION/POSITION TIME  TEMP    WIND        PRES    WAVE
                       AIR SEA DIR/SP/G            HT/PER
                 (UTC) (F)     (DEG/KT/KT) (MB)    (FT/S)
DEVILS ISLAND    0700   37     250/ 22/ 25 1008.9R
PORT WING        0640   39     230/  9/ 13 1010.5R
SAXON HARBOR     0640   38     200/  8/ 12 1009.5S
$$

LMZ867-665-643>646-300800-
LAKE MICHIGAN

STATION/POSITION TIME  TEMP    WIND        PRES    WAVE
                       AIR SEA DIR/SP/G            HT/PER
                 (UTC) (F)     (DEG/KT/KT) (MB)    (FT/S)
NORTHPORT PIER   0600   38     290/  9/ 15 1007.1R
SISTER BAY       0617   35     290/ 13/ 15   N/A
KEWAUNEE LAKESHO 0618   38     290/  9/ 14 1008.5R
SHEBOYGAN LAKESH 0700   40     280/ 13/ 17 1012.2R
PORT WASHINGTON  0600   40     280/  5/  9 1012.5
MILWAUKEE LAKESH 0600   42     280/  8/ 11   N/A
KENOSHA   LAKESH 0700   40     260/  8/ 11 1013.5R
$$

TC  - TEMPERATURE IN CELSIUS
VSB - VISIBILITY IN STATUTE MILES
WCI - WIND CHILL INDEX
HX  - HEAT INDEX



USA.gov is the U.S. government's official web portal to all federal, state and local government web resources and services.